TimeAKDT,TemperatureF,Dew PointF,Humidity,Sea Level PressureIn,VisibilityMPH,Wind Direction,Wind SpeedMPH,Gust SpeedMPH,PrecipitationIn,Events,Conditions,WindDirDegrees,DateUTC
12:55 AM,-18.9,-24.0,78,30.16,10.0,Calm,Calm,-,N/A,,Clear,0,2013-03-28 08:55:00
1:55 AM,-19.8,-25.4,75,30.15,10.0,Calm,Calm,-,N/A,,Clear,0,2013-03-28 09:55:00
2:55 AM,-20.9,-26.9,74,30.14,10.0,Calm,Calm,-,N/A,,Clear,0,2013-03-28 10:55:00
3:55 AM,-21.6,-27.9,73,30.14,10.0,Calm,Calm,-,N/A,,Clear,0,2013-03-28 11:55:00
4:55 AM,-21.8,-28.1,73,30.13,10.0,Calm,Calm,-,N/A,,Clear,0,2013-03-28 12:55:00
5:55 AM,-25.8,-29.9,81,30.13,10.0,Calm,Calm,-,N/A,,Clear,0,2013-03-28 13:55:00
6:55 AM,-23.8,-29.9,73,30.12,10.0,Calm,Calm,-,N/A,,Clear,0,2013-03-28 14:55:00
7:55 AM,-26.5,-29.9,84,30.11,10.0,Calm,Calm,-,N/A,,Clear,0,2013-03-28 15:55:00
8:55 AM,-18.9,-25.2,73,30.09,10.0,Calm,Calm,-,N/A,,Clear,0,2013-03-28 16:55:00
9:55 AM,-13.7,-20.0,73,30.08,10.0,Calm,Calm,-,N/A,,Clear,0,2013-03-28 17:55:00
10:55 AM,-4.9,-11.2,74,30.08,10.0,Calm,Calm,-,N/A,,Clear,0,2013-03-28 18:55:00
11:55 AM,2.8,-6.3,66,30.06,10.0,North,3.5,-,N/A,,Partly Cloudy,10,2013-03-28 19:55:00
12:55 PM,12.2,-2.7,51,30.05,10.0,Calm,Calm,-,N/A,,Mostly Cloudy,0,2013-03-28 20:55:00
1:55 PM,18.3,1.0,47,30.02,10.0,Calm,Calm,-,N/A,,Mostly Cloudy,0,2013-03-28 21:55:00
2:55 PM,25.5,2.3,37,30.00,10.0,Calm,Calm,-,N/A,,Scattered Clouds,0,2013-03-28 22:55:00
3:55 PM,28.0,3.9,36,29.98,10.0,Calm,Calm,-,N/A,,Clear,0,2013-03-28 23:55:00
4:55 PM,28.0,7.2,41,29.96,10.0,North,5.8,-,N/A,,Scattered Clouds,360,2013-03-29 00:55:00
5:55 PM,27.9,9.1,45,29.95,10.0,North,4.6,-,N/A,,Clear,360,2013-03-29 01:55:00
6:55 PM,29.8,7.2,38,29.94,10.0,SSE,10.4,-,N/A,,Scattered Clouds,160,2013-03-29 02:55:00
7:55 PM,21.0,5.5,51,29.94,10.0,SE,5.8,-,N/A,,Mostly Cloudy,140,2013-03-29 03:55:00
8:55 PM,21.2,7.3,55,29.93,10.0,SSE,3.5,-,N/A,,Mostly Cloudy,160,2013-03-29 04:55:00
9:55 PM,19.0,5.9,57,29.92,10.0,Calm,Calm,-,N/A,,Overcast,0,2013-03-29 05:55:00
10:55 PM,11.3,3.0,69,29.91,10.0,Calm,Calm,-,N/A,,Scattered Clouds,0,2013-03-29 06:55:00
11:55 PM,11.3,4.5,74,29.91,10.0,Variable,5.8,-,N/A,,Clear,0,2013-03-29 07:55:00